(418993) = 2009 MS9

Discovered at Mauna Kea on 2009-06-25 by J.-M. Petit, B. Gladman, and J. J. Kavelaars.

Orbit

Orbit type: Distant object
Object is a characterized TNO in the Canada-France Ecliptic Plane Survey; absolutely-calibrated survey information available.

Note: WebGL enabled browser required.

epoch2023-02-25.0
epoch JD2460000.5
perihelion date2013-02-14.65658
perihelion JD2456338.15658
argument of perihelion (°)128.74640
ascending node (°)220.14199
inclination (°)67.92293
eccentricity0.9717990
perihelion distance (AU)11.0079995
Tisserand w.r.t. Jupiter1.5
ΔV w.r.t. Earth (km/sec)19.9
semimajor axis (AU)390.3413455
mean anomaly (°)0.46805
mean daily motion (°/day)0.00012780
aphelion distance (AU)769.675
period (years)7712
P-vector [x]0.66743002
P-vector [y]-0.12289015
P-vector [z]0.73446251
Q-vector [x]0.44455848
Q-vector [y]0.85700660
Q-vector [z]-0.26059057
absolute magnitude9.74
phase slope0.15
uncertainty0
referenceMPO 731181
observations used298
oppositions15
arc length (days)7090
first opposition used2003
last opposition used2022
residual rms (arc-secs)0.52
perturbers coarse indicatorM-v
perturbers precise indicator003El
first observation date used2003-06-26.0
last observation date used2022-11-23.0
computer nameMPCLINUX
JD of orbit computation2457008.233439
perihelion JD uncertainty (days)1.3247E-03
argument of perihelion uncertainty (°)4.8476E-05
ascending node uncertainty (°)6.4408E-06
inclination uncertainty (°)6.7733E-06
eccentricity uncertainty 4.9007E-06
perihelion distance uncertainty (AU)8.6517E-06
Minimum Orbit Intersection Distances (in AU)
for orbit epoch: 2460000.5, reference: E2022-X34
Mercury10.7896
Venus10.5273
Earth10.3065
Mars10.0169
Jupiter7.35716
Saturn3.93349
Uranus5.58171
Neptune8.45051

Observations

303 total observations over interval: 2003 06 26.253556 – 2022 11 23.438110
These data are available for download (format description).

Date (UT) J2000 RA J2000 Dec Magn Location Ref
2003 06 26.253556 16 17 45.74 +20 38 46.6 21.2 V 645 – Apache Point-Sloan Digital Sky Survey MPS 818893
2003 06 26.254385 16 17 45.74 +20 38 46.6 21.4 V 645 – Apache Point-Sloan Digital Sky Survey MPS 818893
2003 06 26.256873 16 17 45.74 +20 38 46.6 22.4 V 645 – Apache Point-Sloan Digital Sky Survey MPS 818893
2009 06 25.47918 18 53 29.76 +48 55 43.1 21.6 r 568 – Maunakea MPS 295934
2009 06 25.52315 18 53 28.93 +48 55 46.7 21.5 r 568 – Maunakea MPS 295934
2009 06 25.56815 18 53 28.08 +48 55 50.2 21.8 r 568 – Maunakea MPS 295934
2009 07 19.35787 18 45 59.90 +49 06 24.3   568 – Maunakea MPS 295934
2009 07 20.38698 18 45 41.21 +49 05 52.9 21.4 r 568 – Maunakea MPS 1491518
2009 07 20.38916 18 45 41.20 +49 05 52.9   568 – Maunakea MPS 295934
2009 07 21.33547 18 45 24.19 +49 05 19.8 21.5 r 568 – Maunakea MPS 1491518
2009 07 21.33766 18 45 24.16 +49 05 19.8 21.8 r 568 – Maunakea MPS 295934
2009 07 21.37948 18 45 23.40 +49 05 18.2 21.6 r 568 – Maunakea MPS 295934
2009 07 21.38167 18 45 23.34 +49 05 18.2 21.3 r 568 – Maunakea MPS 1491518
2009 07 21.42299 18 45 22.60 +49 05 16.6 21.6 r 568 – Maunakea MPS 295934
2009 07 21.42518 18 45 22.55 +49 05 16.5 21.3 r 568 – Maunakea MPS 1491518
2009 07 24.20490 18 44 33.44 +49 03 15.3   675 – Palomar Mountain MPS 295934
2009 07 24.24566 18 44 32.73 +49 03 13.4   675 – Palomar Mountain MPS 295934
2009 07 24.30024 18 44 31.76 +49 03 10.6   675 – Palomar Mountain MPS 295934
2009 07 25.25891 18 44 15.15 +49 02 20.5   675 – Palomar Mountain MPS 295934
2009 07 25.33303 18 44 13.86 +49 02 16.4   675 – Palomar Mountain MPS 295934
2009 07 25.39309 18 44 12.83 +49 02 13.1   675 – Palomar Mountain MPS 295934
2009 07 25.48898 18 44 11.16 +49 02 07.6   675 – Palomar Mountain MPS 295934
2009 08 18.17670 18 38 35.53 +48 21 48.1 21.8 r 675 – Palomar Mountain MPS 295934
2009 08 18.22221 18 38 35.04 +48 21 41.5   675 – Palomar Mountain MPS 295934
2009 08 18.28435 18 38 34.38 +48 21 32.5   675 – Palomar Mountain MPS 295934
2009 08 18.33847 18 38 33.80 +48 21 24.4   675 – Palomar Mountain MPS 295934
2009 08 18.39258 18 38 33.22 +48 21 16.5   675 – Palomar Mountain MPS 295934
2009 08 19.15497 18 38 25.47 +48 19 25.3   675 – Palomar Mountain MPS 295934
2009 08 19.21395 18 38 24.87 +48 19 16.5   675 – Palomar Mountain MPS 295934
2009 08 19.27776 18 38 24.20 +48 19 07.0   675 – Palomar Mountain MPS 295934
2009 08 19.34090 18 38 23.58 +48 18 58.4 21.9 r 568 – Maunakea MPS 295934
2009 08 19.36283 18 38 23.35 +48 18 55.1 21.8 r 568 – Maunakea MPS 295934
2009 08 19.37446 18 38 23.21 +48 18 52.5   675 – Palomar Mountain MPS 295934
2009 08 19.38256 18 38 23.15 +48 18 52.1 22.0 r 568 – Maunakea MPS 295934
2009 08 19.41581 18 38 22.77 +48 18 46.3   675 – Palomar Mountain MPS 295934
2009 08 21.27450 18 38 04.88 +48 14 06.6   568 – Maunakea MPS 295934
2009 08 21.27807 18 38 04.84 +48 14 05.9 21.2 r 568 – Maunakea MPS 1491518
2009 08 21.33436 18 38 04.30 +48 13 57.1 21.4 r 568 – Maunakea MPS 1491518
2009 08 21.34150 18 38 04.23 +48 13 56.1   568 – Maunakea MPS 295934
2009 08 21.43977 18 38 03.28 +48 13 40.7 20.9 r 568 – Maunakea MPS 1491518
2009 08 21.44333 18 38 03.25 +48 13 40.3   568 – Maunakea MPS 295934
2009 09 13.23661 18 36 19.51 +47 04 55.2 21.6 r 568 – Maunakea MPS 295934
2009 09 13.23879 18 36 19.51 +47 04 54.7 21.6 r 568 – Maunakea MPS 295934
2009 09 13.24097 18 36 19.51 +47 04 54.3 21.6 r 568 – Maunakea MPS 295934
2009 09 13.24316 18 36 19.51 +47 04 53.8 21.6 r 568 – Maunakea MPS 295934
2009 10 12.10406 18 39 37.17 +45 24 34.6 20.9 R 688 – Lowell Observatory, Anderson Mesa Station MPS 298374
2009 10 12.13531 18 39 37.57 +45 24 28.2   688 – Lowell Observatory, Anderson Mesa Station MPS 298374
2009 10 12.21186 18 39 38.60 +45 24 12.7   568 – Maunakea MPS 603137
2009 10 12.21473 18 39 38.63 +45 24 12.1   568 – Maunakea MPS 603137
2009 10 12.22222 18 39 38.73 +45 24 10.6   568 – Maunakea MPS 603137
2009 10 12.22521 18 39 38.77 +45 24 10.0   568 – Maunakea MPS 603137
2009 10 17.21783 18 40 49.98 +45 07 17.5 21.2 r 568 – Maunakea MPS 603137
2009 10 17.21978 18 40 50.00 +45 07 17.0 21.1 r 568 – Maunakea MPS 603137
2009 10 17.22179 18 40 50.03 +45 07 16.6 21.2 r 568 – Maunakea MPS 603137
2009 10 17.22374 18 40 50.06 +45 07 16.2 21.1 r 568 – Maunakea MPS 603137
2010 02 13.66070 19 39 12.52 +44 12 08.4 21.7 r 568 – Maunakea MPS 603137
2010 02 13.66266 19 39 12.58 +44 12 08.8 21.8 r 568 – Maunakea MPS 603137
2010 02 13.66464 19 39 12.65 +44 12 09.3 21.8 r 568 – Maunakea MPS 603137
2010 03 17.63746 19 54 11.79 +46 13 37.9   568 – Maunakea MPS 603137
2010 03 17.63941 19 54 11.84 +46 13 38.4   568 – Maunakea MPS 603137
2010 03 17.64137 19 54 11.89 +46 13 39.0   568 – Maunakea MPS 603137
2010 04 17.60810 20 03 38.68 +48 41 15.0 21.2 r 568 – Maunakea MPS 603137
2010 04 17.61402 20 03 38.75 +48 41 16.9 21.1 r 568 – Maunakea MPS 603137
2010 05 13.56174 20 06 23.50 +50 46 29.8   568 – Maunakea MPS 603137
2010 05 13.56370 20 06 23.51 +50 46 30.3   568 – Maunakea MPS 603137
2010 05 13.56565 20 06 23.51 +50 46 30.8   568 – Maunakea MPS 603137
2010 06 13.92668 20 02 55.51 +52 49 23.9   461 – University of Szeged, Piszkesteto Stn. (Konkol MPS 331983
2010 06 13.93108 20 02 55.41 +52 49 24.6 21 R 461 – University of Szeged, Piszkesteto Stn. (Konkol MPS 331983
2010 06 14.92256 20 02 42.33 +52 52 25.5 21 R 461 – University of Szeged, Piszkesteto Stn. (Konkol MPS 331983
2010 06 14.93136 20 02 42.20 +52 52 27.6   461 – University of Szeged, Piszkesteto Stn. (Konkol MPS 331983
2010 06 14.94016 20 02 42.10 +52 52 29.3   461 – University of Szeged, Piszkesteto Stn. (Konkol MPS 331983
2010 09 07.21309 19 38 55.53 +52 30 23.4   675 – Palomar Mountain MPS 603137
2010 09 07.23863 19 38 55.32 +52 30 18.4   675 – Palomar Mountain MPS 603137
2010 09 08.20804 19 38 47.83 +52 27 04.9   675 – Palomar Mountain MPS 603137
2010 09 08.24576 19 38 47.54 +52 26 57.3   675 – Palomar Mountain MPS 603137
2010 12 03.18988 19 57 51.77 +47 05 20.9 21.5 r 568 – Maunakea MPS 603137
2010 12 03.19154 19 57 51.81 +47 05 20.6 21.6 r 568 – Maunakea MPS 603137
2010 12 05.20363 19 58 55.35 +47 00 11.2 20.8 r 568 – Maunakea MPS 603137
2010 12 05.20529 19 58 55.40 +47 00 10.8 21.0 r 568 – Maunakea MPS 603137
2011 07 28.28533 21 17 21.69 +56 09 06.8 20.1 R 688 – Lowell Observatory, Anderson Mesa Station MPS 387800
2011 07 28.32206 21 17 20.97 +56 09 08.1   688 – Lowell Observatory, Anderson Mesa Station MPS 387800
2011 07 30.91957 21 16 29.94 +56 10 22.6   950 – La Palma MPS 603137
2011 07 31.13439 21 16 25.59 +56 10 27.5   950 – La Palma MPS 603137
2011 07 31.14003 21 16 25.47 +56 10 27.6   950 – La Palma MPS 603137
2011 07 31.20395 21 16 24.17 +56 10 28.8   950 – La Palma MPS 603137
2011 08 15.40649 21 11 14.751 +56 05 21.14 20.4 i F51 – Pan-STARRS 1, Haleakala MPS 470681
2011 08 15.41880 21 11 14.464 +56 05 20.13 20.6 i F51 – Pan-STARRS 1, Haleakala MPS 470681
2011 08 20.33549 21 09 35.709 +55 59 16.72 20.5 r F51 – Pan-STARRS 1, Haleakala MPC 100611
2011 08 20.34601 21 09 35.489 +55 59 15.72 20.5 r F51 – Pan-STARRS 1, Haleakala MPC 100611
2011 08 20.35798 21 09 35.257 +55 59 14.79 20.1 i F51 – Pan-STARRS 1, Haleakala MPS 721275
2011 08 20.36888 21 09 35.031 +55 59 13.89 20.2 i F51 – Pan-STARRS 1, Haleakala MPC 100611
2011 08 23.29555 21 08 37.671 +55 54 36.40 20.8 r F51 – Pan-STARRS 1, Haleakala MPS 721275
2011 08 23.30660 21 08 37.450 +55 54 35.24 20.8 r F51 – Pan-STARRS 1, Haleakala MPS 721276
2011 08 23.31901 21 08 37.201 +55 54 33.83 21.2 g F51 – Pan-STARRS 1, Haleakala MPS 721276
2011 09 27.26317 21 00 25.799 +54 07 54.33 20.8 r F51 – Pan-STARRS 1, Haleakala MPS 470681
2011 09 27.27668 21 00 25.704 +54 07 51.06 20.8 r F51 – Pan-STARRS 1, Haleakala MPS 470681
2012 08 15.51495 22 48 18.53 +54 21 07.3 19.5 R F65 – Haleakala-Faulkes Telescope North MPS 429393
2012 08 15.54258 22 48 18.02 +54 21 06.7 19.7 R F65 – Haleakala-Faulkes Telescope North MPS 429393
2012 08 16.47616 22 48 01.22 +54 20 54.0 19.7   F51 – Pan-STARRS 1, Haleakala MPS 473035
2012 08 16.48721 22 48 01.03 +54 20 53.8 20.5   F51 – Pan-STARRS 1, Haleakala MPS 473035
